Regional Weather Roundup
Issued by NWS Albany, NY

Current Version | Previous Version | Text Only | Print | Product List | Glossary On
Versions: 1 2 3 4 5 6 7 8 9 10 11 12 13 14 15 16 17 18 19 20 21 22 23 24 25 26 27 28 29 30 31 32 33 34 35 36 37 38 39 40 41 42 43 44 45 46 47 48 49 50
000
ASUS41 KALY 271310
RWRALY

NEW YORK STATE HOURLY WEATHER ROUNDUP
NATIONAL WEATHER SERVICE ALBANY NY
800 AM EST THU NOV 27 2014

NOTE: "FAIR" INDICATES FEW OR NO CLOUDS BELOW 12,000 FEET WITH NO
SIGNIFICANT WEATHER AND/OR NO OBSTRUCTIONS TO VISIBILITY.

NYZ032-033-038>043-046>054-057>066-NYZ062>081-271400-
EAST


CITY           SKY/WX    TMP DP  RH WIND       PRES   REMARKS
ALBANY         CLOUDY    30  26  85 N5        29.98R WCI  25
GLENS FALLS    CLOUDY    30  23  75 N10       29.98R WCI  21
POUGHKEEPSIE   CLOUDY    29  27  92 CALM      29.98R
NEWBURGH       MOCLDY    30  30 100 CALM      29.97S
MONTGOMERY     CLOUDY    30  29  96 CALM      29.96R FOG
WHITE PLAINS   CLOUDY    33  28  81 NW12      29.95R WCI  24
ISLIP          FLURRIES  36  31  82 NW7       29.95R WCI  30
NEW YORK CITY  CLOUDY    37  31  78 N8        29.97R WCI  31
CENTRAL PARK   CLOUDY    37  30  75 N3        30.00R
$$

NYZ005>009-017-018-044>046-055-056-271400-
CENTRAL


CITY           SKY/WX    TMP DP  RH WIND       PRES   REMARKS
FULTON         LGT SNOW  29  24  82 NE3       30.02S
SYRACUSE       LGT SNOW  28  26  92 NW3       30.03R FOG
ROME           CLOUDY    27  25  92 NW5       30.02R WCI  22
ELMIRA         CLOUDY    30  25  81 W8        30.01R WCI  22
BINGHAMTON     LGT SNOW  33  24  69 CALM      29.94R
MONTICELLO     CLOUDY    27  25  93 NW7       29.92S WCI  19
$$

NYZ026>034-041>043-271400-
NORTH


CITY           SKY/WX    TMP DP  RH WIND       PRES   REMARKS
WATERTOWN      CLOUDY    29  19  66 CALM      30.04R
FORT DRUM      NOT AVBL
MASSENA        CLOUDY    29  20  69 N6        30.04R WCI  23
SARANAC LAKE   CLOUDY    23  32 100 CALM      29.91R
PLATTSBURGH    CLOUDY    27  24  89 NW7       30.01  WCI  19
$$

NYZ001>004-010>016-019>021-271400-
WEST


CITY           SKY/WX    TMP DP  RH WIND       PRES   REMARKS
NIAGARA FALLS  CLOUDY    28  22  78 CALM      30.05R
BUFFALO        FLURRIES  29  22  75 SE5       30.04S WCI  24
DUNKIRK        CLOUDY    29  23  78 CALM      30.05S
JAMESTOWN      CLOUDY    27  21  80 NE3       29.99S
WELLSVILLE     CLOUDY    24  19  81 NW6       29.97S WCI  17
ROCHESTER      LGT SNOW  28  26  92 NW3       30.05S FOG
PENN YAN       CLOUDY    28  23  81 W8        30.02R WCI  20
$$

             KEY
       WCI = WIND CHILL INDEX
       VSB = VISIBILITY
       HX  = HEAT INDEX
$$



USA.gov is the U.S. government's official web portal to all federal, state and local government web resources and services.